Estación Meteorológica Peña el Pijo (Robertgarden) [ 07/11/20 03:20:58 CEST ]

Fecha Hora Presion(HPa) Temp (°C) Humedad % Rocio (°C) Viento ( m/s) Direccion Lluvia 1Hora(mm) Lluvia 24H(mm) LLuvia Total(mm)
2019-Dec-19 01:09:14 1006.700 - - - - S     39.88
2019-Dec-19 02:09:39 1006.200 - - - - S     39.88
2019-Dec-19 03:12:10 1006.500 - - - - S     39.88
2019-Dec-19 04:09:29 1006.400 - - - - S     39.88
2019-Dec-19 05:09:23 1006.000 - - - - S     39.88
2019-Dec-19 06:09:27 1005.900 - - - - S     39.88
2019-Dec-19 07:09:17 1006.600 - - - - S     39.88
2019-Dec-19 08:09:26 1007.400 - - - - S     39.88
2019-Dec-19 09:09:22 1005.300 - - - - S     39.88
2019-Dec-19 10:09:24 1003.100 - - - - S     39.88
2019-Dec-19 11:08:59 1005.100 - - - - S     39.88
2019-Dec-19 12:08:53 1005.700 - - - - S     39.88
2019-Dec-19 13:09:07 1005.300 - - - - S     39.88
2019-Dec-19 14:08:51 1002.300 - - - - S     39.88
2019-Dec-19 15:09:26 1002.800 - - - - S     39.88
2019-Dec-19 16:09:02 1002.900 - - - - S     39.88
2019-Dec-19 17:09:24 1002.700 - - - - S     39.88
2019-Dec-19 18:09:11 1002.100 - - - - S     39.88
2019-Dec-19 19:09:44 1001.800 - - - - S     39.88
2019-Dec-19 20:09:10 1001.700 - - - - S     39.88
2019-Dec-19 21:09:02 1000.600 - - - - S     39.88
2019-Dec-19 22:09:36 999.700 - - - - S     39.88
2019-Dec-19 23:09:13 999.000 - - - - S     39.88

Temperatura Máxima:    Temperatura Mínima:
Presión Máxima:1007.400 Hpa    Presión Mínima:999.000 Hpa


Volver